Progress Software Pre-Tax Profit Margin 2010-2024 | PRGS

Progress Software pre-tax profit margin from 2010 to 2024. Pre-tax profit margin can be defined as earnings before taxes as a portion of total revenue.
Progress Software Pre-Tax Profit Margin Historical Data
Date TTM Revenue TTM Pre-Tax Income Pre-Tax Margin
2024-05-31 $0.71B $0.08B 11.66%
2024-02-29 $0.72B $0.08B 10.91%
2023-11-30 $0.69B $0.08B 11.53%
2023-08-31 $0.67B $0.09B 13.80%
2023-05-31 $0.65B $0.10B 15.38%
2023-02-28 $0.62B $0.12B 19.65%
2022-11-30 $0.60B $0.12B 19.60%
2022-08-31 $0.59B $0.11B 17.95%
2022-05-31 $0.58B $0.12B 20.14%
2022-02-28 $0.55B $0.10B 17.51%
2021-11-30 $0.53B $0.10B 18.11%
2021-08-31 $0.51B $0.10B 19.34%
2021-05-31 $0.48B $0.09B 18.74%
2021-02-28 $0.45B $0.09B 20.75%
2020-11-30 $0.44B $0.10B 21.72%
2020-08-31 $0.44B $0.07B 15.79%
2020-05-31 $0.43B $0.05B 11.75%
2020-02-29 $0.43B $0.04B 9.45%
2019-11-30 $0.41B $0.03B 6.52%
2019-08-31 $0.40B $0.05B 11.65%
2019-05-31 $0.38B $0.05B 13.39%
2019-02-28 $0.37B $0.06B 14.97%
2018-11-30 $0.38B $0.06B 16.09%
2018-08-31 $0.39B $0.07B 17.22%
2018-05-31 $0.39B $0.07B 17.56%
2018-02-28 $0.39B $0.07B 18.07%
2017-11-30 $0.39B $0.05B 13.62%
2017-08-31 $0.40B $-0.03B -6.27%
2017-05-31 $0.40B $-0.03B -7.92%
2017-02-28 $0.41B $-0.04B -9.83%
2016-11-30 $0.41B $-0.04B -8.64%
2016-08-31 $0.40B $0.05B 11.75%
2016-05-31 $0.39B $0.04B 10.69%
2016-02-29 $0.39B $0.03B 6.99%
2015-11-30 $0.38B $0.01B 3.17%
2015-08-31 $0.36B $0.02B 5.51%
2015-05-31 $0.35B $0.03B 8.65%
2015-02-28 $0.34B $0.05B 15.93%
2014-11-30 $0.33B $0.08B 23.42%
2014-08-31 $0.33B $0.08B 23.01%
2014-05-31 $0.33B $0.07B 20.92%
2014-02-28 $0.33B $0.06B 19.02%
2013-11-30 $0.34B $0.06B 18.81%
2013-08-31 $0.33B $0.06B 19.33%
2013-05-31 $0.32B $0.07B 20.19%
2013-02-28 $0.31B $0.06B 20.38%
2012-11-30 $0.32B $0.07B 21.45%
2012-08-31 $0.33B $0.07B 22.19%
2012-05-31 $0.38B $0.08B 19.74%
2012-02-29 $0.44B $0.09B 20.18%
2011-11-30 $0.49B $0.10B 20.08%
2011-08-31 $0.54B $0.10B 18.74%
2011-05-31 $0.54B $0.10B 18.78%
2011-02-28 $0.54B $0.10B 19.03%
2010-11-30 $0.53B $0.07B 13.58%
2010-08-31 $0.52B $0.07B 12.45%
2010-05-31 $0.51B $0.06B 11.52%
2010-02-28 $0.50B $0.04B 8.58%
2009-11-30 $0.49B $0.05B 10.32%
Sector Industry Market Cap Revenue
Computer and Technology Computer Software $2.376B $0.694B
Progress offers the leading platform for developing and deploying mission-critical business applications. Progress empowers enterprises and ISVs to build and deliver cognitive-first applications that harness big data to derive business insights and competitive advantage. Progress offers leading technologies for easily building powerful user interfaces across any type of device, a reliable, scalable and secure backend platform to deploy modern applications, leading data connectivity to all sources, and award-winning predictive analytics that brings the power of machine learning to any organization.
Stock Name Country Market Cap PE Ratio
Microsoft (MSFT) United States $3248.735B 37.85
Oracle (ORCL) United States $381.852B 31.00
Adobe (ADBE) United States $244.313B 39.53
Salesforce (CRM) United States $239.953B 35.73
Intuit (INTU) United States $177.948B 55.45
Synopsys (SNPS) United States $86.279B 59.46
Cadence Design Systems (CDNS) United States $76.265B 72.53
Autodesk (ADSK) United States $52.250B 47.63
Dassault Systemes SA (DASTY) France $50.191B 32.61
MicroStrategy (MSTR) United States $31.545B 0.00
ANSYS (ANSS) United States $27.459B 50.81
PTC (PTC) United States $21.058B 55.85
SS&C Technologies Holdings (SSNC) United States $16.459B 15.59
Manhattan Associates (MANH) United States $13.459B 71.43
Descartes Systems Group (DSGX) Canada $8.488B 71.01
Open Text (OTEX) Canada $8.286B 8.50
Trend Micro (TMICY) Japan $6.411B 46.43
CommVault Systems (CVLT) United States $5.299B 85.87
Pegasystems (PEGA) United States $5.074B 44.86
ACI Worldwide (ACIW) United States $4.369B 20.93
Blackbaud (BLKB) United States $3.993B 34.38
Sapiens (SPNS) Israel $2.193B 29.91
Verint Systems (VRNT) United States $2.091B 19.58
BlackBerry (BB) Canada $1.429B 0.00
PROS Holdings (PRO) United States $1.109B 0.00
Simulations Plus (SLP) United States $0.791B 59.01
Rand Worldwide (RWWI) United States $0.663B 0.00
Magic Software Enterprises (MGIC) Israel $0.544B 11.54
Canaan (CAN) China $0.339B 0.00
American Software (AMSWA) United States $0.320B 27.49
OptimizeRx (OPRX) United States $0.183B 0.00
Rigetti Computing (RGTI) United States $0.179B 0.00
Neonode (NEON) Sweden $0.048B 0.00
Icad Inc (ICAD) United States $0.035B 0.00
NetSol Technologies (NTWK) United States $0.032B 0.00
Wetouch Technology (WETH) $0.026B 0.00
Smith Micro Software (SMSI) United States $0.022B 0.00
Hanryu Holdings (HRYU) South Korea $0.014B 0.00
GSE Systems (GVP) United States $0.011B 0.00
SAP SE (SAP) Germany $0.000B 50.44